Date String (YYYY-MM-DD hh:mm:ss) UTC,Instrument flags,Ambient pressure (hPa),Sample flow (lpm),Bypass flow (lpm),Sample temperature (°C),Ambient temperature (°C),ASC tube jacket temperature (°C),LED temperature (°C),Box temperature (°C),Sample RH (%),Span deviation,Mass concentration (μg/m³),Mass concentration (μg/m³),Mass concentration (μg/m³)
DateTimeUTC,F1_M11,P_M11,Q1_M11,Q2_M11,T1_M11,T2_M11,T3_M11,T4_M11,T5_M11,U1_M11,ZSPAN_M11,X0_M11,X2_M11,X1_M11
2022-04-21 03:00:00,,0821.8,4.99,0.00,29.1,28.2,00.0,38.1,30.8,10.9,0000.0,0024.18,0005.50,0002.17
2022-04-21 03:01:00,,0821.8,4.99,0.00,29.1,28.2,00.0,38.1,30.8,11.0,0000.0,0023.49,0005.59,0002.19
2022-04-21 03:02:00,,0821.8,5.01,0.00,29.1,28.2,00.0,38.0,30.8,11.0,0000.0,0023.40,0005.68,0002.22
2022-04-21 03:03:00,,0821.8,5.02,0.00,29.0,28.2,00.0,38.0,30.8,11.0,0000.0,0023.06,0005.66,0002.22
2022-04-21 03:04:00,,0821.8,4.99,0.00,29.0,28.2,00.0,38.0,30.8,11.0,0000.0,0023.06,0005.61,0002.24
2022-04-21 03:05:00,,0821.8,4.99,0.00,29.0,28.2,00.0,38.0,30.8,11.0,0000.0,0023.10,0005.59,0002.22
2022-04-21 03:06:00,,0821.8,5.02,0.00,29.0,28.2,00.0,38.0,30.8,11.1,0000.0,0022.77,0005.51,0002.21
2022-04-21 03:07:00,,0821.8,4.98,0.00,29.0,28.2,00.0,38.0,30.8,11.1,0000.0,0022.44,0005.51,0002.19
2022-04-21 03:08:00,,0821.8,5.01,0.00,29.0,28.2,00.0,38.0,30.8,11.1,0000.0,0022.48,0005.54,0002.16
2022-04-21 03:09:00,,0821.9,5.00,0.00,29.0,28.2,00.0,38.0,30.8,11.1,0000.0,0023.16,0005.58,0002.17
2022-04-21 03:10:00,,0821.9,4.99,0.00,29.0,28.1,00.0,38.0,30.8,11.1,0000.0,0022.02,0005.61,0002.19
2022-04-21 03:11:00,,0822.0,5.01,0.00,29.0,28.1,00.0,38.0,30.8,11.1,0000.0,0021.99,0005.67,0002.18
2022-04-21 03:12:00,,0822.0,5.00,0.00,29.0,28.1,00.0,38.0,30.7,11.1,0000.0,0021.60,0005.54,0002.17
2022-04-21 03:13:00,,0822.1,4.99,0.00,29.0,28.2,00.0,38.0,30.8,11.1,0000.0,0021.04,0005.47,0002.16
2022-04-21 03:14:00,,0822.1,5.00,0.00,29.0,28.1,00.0,38.0,30.8,11.1,0000.0,0021.36,0005.43,0002.17
2022-04-21 03:15:00,,0822.1,5.01,0.00,29.0,28.1,00.0,38.0,30.8,11.1,0000.0,0021.85,0005.54,0002.18
2022-04-21 03:16:00,,0822.2,4.98,0.00,29.0,28.1,00.0,38.0,30.8,11.1,0000.0,0021.92,0005.57,0002.20
2022-04-21 03:17:00,,0822.2,5.00,0.00,29.0,28.1,00.0,38.0,30.8,11.1,0000.0,0022.37,0005.61,0002.23
2022-04-21 03:18:00,,0822.3,5.00,0.00,29.0,28.2,00.0,38.0,30.8,11.1,0000.0,0023.11,0005.55,0002.24
2022-04-21 03:19:00,,0822.3,4.99,0.00,29.0,28.2,00.0,38.0,30.9,11.1,0000.0,0023.88,0005.46,0002.25
2022-04-21 03:20:00,,0822.3,4.99,0.00,29.1,28.3,00.0,38.0,30.9,11.1,0000.0,0022.60,0005.43,0002.27
2022-04-21 03:21:00,,0822.4,5.00,0.00,29.1,28.3,00.0,38.0,30.9,11.0,0000.0,0022.42,0005.36,0002.27
2022-04-21 03:22:00,,0822.4,5.00,0.00,29.1,28.4,00.0,38.0,30.9,11.0,0000.0,0021.48,0005.29,0002.27
2022-04-21 03:23:00,,0822.4,5.00,0.00,29.1,28.4,00.0,38.0,31.0,11.0,0000.0,0019.81,0005.30,0002.28
2022-04-21 03:24:00,,0822.4,5.00,0.00,29.1,28.5,00.0,38.0,31.0,11.0,0000.0,0020.77,0005.33,0002.28
2022-04-21 03:25:00,,0822.4,5.00,0.00,29.2,28.5,00.0,38.0,31.0,11.0,0000.0,0020.31,0005.32,0002.28
2022-04-21 03:26:00,,0822.5,5.00,0.00,29.2,28.5,00.0,38.1,31.0,11.0,0000.0,0018.96,0005.22,0002.28
2022-04-21 03:27:00,,0822.5,5.01,0.00,29.2,28.5,00.0,38.1,31.0,11.0,0000.0,0018.91,0005.18,0002.28
2022-04-21 03:28:00,,0822.6,4.99,0.00,29.2,28.6,00.0,38.1,31.0,11.0,0000.0,0018.48,0005.15,0002.27
2022-04-21 03:29:00,,0822.6,5.02,0.00,29.2,28.6,00.0,38.1,31.1,11.0,0000.0,0017.64,0005.13,0002.29
2022-04-21 03:30:00,,0822.5,5.00,0.00,29.2,28.6,00.0,38.1,31.1,10.9,0000.0,0016.70,0005.20,0002.30
2022-04-21 03:31:00,,0822.5,4.99,0.00,29.3,28.6,00.0,38.1,31.1,10.9,0000.0,0017.53,0005.25,0002.31
2022-04-21 03:32:00,,0822.5,5.00,0.00,29.3,28.7,00.0,38.1,31.2,10.9,0000.0,0017.56,0005.29,0002.31
2022-04-21 03:33:00,,0822.5,5.00,0.00,29.3,28.7,00.0,38.1,31.2,10.9,0000.0,0017.59,0005.32,0002.31
2022-04-21 03:34:00,,0822.5,5.01,0.00,29.3,28.7,00.0,38.2,31.2,10.9,0000.0,0019.37,0005.33,0002.30
2022-04-21 03:35:00,,0822.5,4.99,0.00,29.4,28.7,00.0,38.2,31.2,10.9,0000.0,0019.86,0005.33,0002.29
2022-04-21 03:36:00,,0822.6,4.99,0.00,29.4,28.8,00.0,38.2,31.2,10.9,0000.0,0020.59,0005.34,0002.30
2022-04-21 03:37:00,,0822.5,5.01,0.00,29.4,28.8,00.0,38.2,31.2,10.9,0000.0,0020.81,0005.40,0002.31
2022-04-21 03:38:00,,0822.6,5.00,0.00,29.4,28.8,00.0,38.2,31.2,10.9,0000.0,0020.65,0005.39,0002.30
2022-04-21 03:39:00,,0822.6,4.98,0.00,29.4,28.8,00.0,38.2,31.2,10.9,0000.0,0021.01,0005.41,0002.32
2022-04-21 03:40:00,,0822.6,5.01,0.00,29.4,28.8,00.0,38.2,31.3,10.9,0000.0,0020.64,0005.37,0002.30
2022-04-21 03:41:00,,0822.6,5.01,0.00,29.4,28.8,00.0,38.3,31.2,10.9,0000.0,0020.28,0005.33,0002.29
2022-04-21 03:42:00,,0822.6,5.00,0.00,29.4,28.8,00.0,38.3,31.2,10.9,0000.0,0020.26,0005.27,0002.28
2022-04-21 03:43:00,,0822.6,4.99,0.00,29.4,28.8,00.0,38.3,31.2,10.9,0000.0,0019.62,0005.23,0002.26
2022-04-21 03:44:00,,0822.6,5.02,0.00,29.5,28.8,00.0,38.3,31.3,10.9,0000.0,0020.04,0005.15,0002.26
2022-04-21 03:45:00,,0822.6,5.00,0.00,29.5,28.8,00.0,38.3,31.2,10.9,0000.0,0019.82,0005.19,0002.28
2022-04-21 03:46:00,,0822.6,5.00,0.00,29.5,28.8,00.0,38.3,31.2,10.9,0000.0,0019.57,0005.24,0002.30
2022-04-21 03:47:00,,0822.6,5.01,0.00,29.4,28.8,00.0,38.3,31.2,10.9,0000.0,0019.46,0005.25,0002.31
2022-04-21 03:48:00,,0822.6,4.99,0.00,29.5,28.8,00.0,38.3,31.2,10.9,0000.0,0019.18,0005.21,0002.29
2022-04-21 03:49:00,,0822.6,5.00,0.00,29.5,28.8,00.0,38.3,31.2,10.9,0000.0,0020.54,0005.22,0002.29
2022-04-21 03:50:00,,0822.6,5.02,0.00,29.5,28.8,00.0,38.4,31.2,10.9,0000.0,0020.81,0005.26,0002.30
2022-04-21 03:51:00,,0822.6,4.99,0.00,29.5,28.8,00.0,38.4,31.3,10.9,0000.0,0021.78,0005.25,0002.30
2022-04-21 03:52:00,,0822.6,5.00,0.00,29.5,28.8,00.0,38.4,31.2,10.9,0000.0,0022.93,0005.32,0002.30
2022-04-21 03:53:00,,0822.6,4.98,0.00,29.5,28.8,00.0,38.4,31.3,10.9,0000.0,0023.10,0005.38,0002.30
2022-04-21 03:54:00,,0822.7,5.00,0.00,29.5,28.8,00.0,38.4,31.3,10.9,0000.0,0023.00,0005.47,0002.31
2022-04-21 03:55:00,,0822.7,5.01,0.00,29.5,28.8,00.0,38.4,31.3,10.9,0000.0,0023.58,0005.59,0002.32
2022-04-21 03:56:00,,0822.7,4.99,0.00,29.5,28.8,00.0,38.4,31.3,10.9,0000.0,0023.17,0005.56,0002.31
2022-04-21 03:57:00,,0822.8,5.00,0.00,29.5,28.8,00.0,38.4,31.3,10.9,0000.0,0022.53,0005.52,0002.30
2022-04-21 03:58:00,,0822.8,5.01,0.00,29.5,28.8,00.0,38.4,31.3,10.9,0000.0,0022.64,0005.51,0002.29
2022-04-21 03:59:00,,0822.7,4.98,0.00,29.5,28.8,00.0,38.4,31.3,10.9,0000.0,0022.64,0005.55,0002.28
